Flag for Australia Weather past 2 weeks in Canberra, Australian Capital Territory, Australia

Now
55 °F

Scattered showers. Partly cloudy.


Feels Like: 55 °F
Forecast: 46 / 58 °F
Wind: 5 mph from Northeast

Location: Canberra Airport

Current Time: Sep 15, 2014 at 7:30:04 PM

Latest Report: Sep 15, 2014 at 7:00 PM


Visibility: N/A

Pressure: 29.95 "Hg

Humidity: 67%

Dew point: 45 °F

Location of CanberraLocation

Historic Weather in Canberra — Graph

°F

Canberra temperature yesterday

Maximum temperature yesterday: 64 °F (at 12:30 PM)
Minimum temperature yesterday: 32 °F (at 3:00 AM)
Average temperature yesterday: 48 °F

Past Weeks' High & Low Weather Summary

 TemperatureHumidityPressure
High66 °F (Sep 15, 3:00 PM)100% (Sep 1, 2:00 AM)30.48 "Hg (Sep 1, 2:00 AM)
Low28 °F (Sep 7, 5:30 AM)41% (Sep 3, 1:04 PM)29.68 "Hg (Sep 10, 4:00 AM)
Average49 °F73%30.10 "Hg
* Reported Aug 31 6:00 PM — Sep 15 6:00 PM, Canberra, Weather by CustomWeather, © 2014

Note: Actual official high and low records may vary slightly from our data, if they occured in-between our weather recording intervals... More about our weather records

Advertising

Canberra weather history for previous 24 hours

 ConditionsComfort  
Time TempWeatherWind HumidityBarometerVisibility
6:00 PM
Sep 15
59 °FScattered showers. Partly cloudy.3 mph51%29.95 "HgN/A
5:30 PM59 °FScattered showers. Partly cloudy.6 mph51%29.95 "HgN/A
5:00 PM61 °FPartly cloudy.8 mph45%29.95 "HgN/A
4:30 PM63 °FBroken clouds.10 mph45%29.95 "HgN/A
4:00 PM63 °FBroken clouds.9 mph52%29.95 "HgN/A
3:00 PM66 °FBroken clouds.13 mph46%29.95 "HgN/A
2:30 PM64 °FBroken clouds.10 mph46%29.95 "HgN/A
2:00 PM63 °FScattered clouds.8 mph49%29.95 "HgN/A
1:30 PM64 °FScattered clouds.5 mph43%29.98 "HgN/A
1:00 PM63 °FPartly sunny.7 mph45%29.98 "HgN/A
12:30 PM63 °FPartly sunny.6 mph52%29.98 "HgN/A
12:00 PM61 °FPartly sunny.5 mph59%30.01 "HgN/A
11:30 AM59 °FPartly sunny.3 mph63%30.04 "HgN/A
11:00 AM57 °FPartly sunny.5 mph67%30.04 "HgN/A
10:30 AM54 °FPartly sunny.5 mph77%30.07 "HgN/A
10:00 AM54 °FPartly sunny.5 mph72%30.07 "HgN/A
9:30 AM52 °FPartly sunny.2 mph82%30.07 "HgN/A
9:00 AM48 °FLow clouds.6 mph94%30.07 "HgN/A
8:30 AM46 °FFog.5 mph93%30.09 "HgN/A
8:00 AM45 °FFog.6 mph100%30.07 "HgN/A
7:30 AM45 °FFog.3 mph100%30.07 "Hg6 mi
7:00 AM43 °FFog.3 mph100%30.07 "HgN/A
6:00 AM41 °FLow clouds.3 mph100%30.07 "HgN/A
5:30 AM41 °FLow clouds.3 mph100%30.07 "HgN/A
5:00 AM43 °FLow clouds.2 mph100%30.07 "HgN/A
4:30 AM41 °FFog.5 mph100%30.07 "HgN/A
4:00 AM39 °FLow clouds.No wind100%30.07 "HgN/A
3:30 AM36 °FLow clouds.No wind100%30.07 "HgN/A
3:05 AM36 °FPassing clouds.5 mph100%30.07 "Hg6 mi
3:00 AM36 °FPassing clouds.6 mph100%30.07 "Hg1 mi
2:30 AM34 °FClear.1 mph93%30.07 "HgN/A
2:00 AM37 °FChilly.5 mph93%30.07 "Hg1 mi
1:30 AM39 °FClear.No wind93%30.09 "HgN/A
1:00 AM39 °FClear.3 mph100%30.07 "HgN/A
12:30 AM39 °FClear.7 mph93%30.07 "HgN/A
12:00 AM39 °FClear.5 mph93%30.09 "HgN/A
11:30 PM
Sep 14
41 °FClear.No wind87%30.09 "HgN/A
11:00 PM43 °FClear.3 mph87%30.09 "HgN/A
10:30 PM43 °FClear.7 mph87%30.09 "HgN/A
10:00 PM43 °FClear.7 mph87%30.09 "HgN/A
9:30 PM48 °FClear.7 mph76%30.09 "HgN/A
9:00 PM50 °FClear.9 mph76%30.09 "HgN/A
8:30 PM50 °FClear.9 mph76%30.07 "HgN/A
8:00 PM52 °FClear.12 mph72%30.07 "HgN/A
7:30 PM54 °FClear.12 mph63%30.07 "HgN/A
7:00 PM54 °FClear.10 mph63%30.04 "HgN/A
Weather by CustomWeather, © 2014

See weather overviewHow to use our weather pages